Flag for Germany Weather past 2 weeks in Rheda-Wiedenbrück, North Rhine-Westphalia, Germany

39 °F

Passing clouds.

Feels Like: 29 °F
Forecast: 41 / 50 °F
Wind: 20 mph from Southwest

Location: Paderborn / Lippstadt

Current Time: Nov 28, 2015 at 9:28:26 PM

Latest Report: Nov 28, 2015 at 8:50 PM

Visibility: N/A

Pressure: 29.89 "Hg

Humidity: 70%

Dew point: 30 °F

Location of Rheda-WiedenbrückLocation

Historic Weather in Rheda-Wiedenbrück — Graph


Rheda-Wiedenbrück temperature yesterday

Maximum temperature yesterday: 41 °F (at 12:20 PM)
Minimum temperature yesterday: 34 °F (at 3:50 AM)
Average temperature yesterday: 36 °F

Past Weeks' High & Low Weather Summary

High57 °F (Nov 17, 1:20 PM)100% (Nov 15, 3:20 PM)30.24 "Hg (Nov 15, 3:20 PM)
Low30 °F (Nov 22, 9:50 PM)56% (Nov 24, 10:50 AM)29.36 "Hg (Nov 21, 5:20 AM)
Average42 °F83%29.85 "Hg
* Reported Nov 13 7:20 PM — Nov 28 7:50 PM, Rheda-Wiedenbrück, Weather by CustomWeather, © 2015

Note: Actual official high and low records may vary slightly from our data, if they occured in-between our weather recording intervals... More about our weather records


Rheda-Wiedenbrück weather history for previous 24 hours

Time TempWeatherWind HumidityBarometerVisibility
7:50 PM
Sat, Nov 28
37 °FClear.16 mph70%29.92 "Hg10 mi
7:20 PM37 °FClear.15 mph75%29.92 "Hg10 mi
6:50 PM37 °FClear.15 mph75%29.92 "Hg10 mi
6:20 PM37 °FClear.15 mph75%29.95 "Hg10 mi
5:50 PM37 °FPassing clouds.14 mph75%29.92 "HgN/A
5:20 PM36 °FPassing clouds.10 mph81%29.92 "HgN/A
4:50 PM37 °FPassing clouds.12 mph75%29.92 "HgN/A
4:20 PM39 °FPassing clouds.10 mph70%29.92 "HgN/A
3:50 PM39 °FScattered clouds.12 mph70%29.92 "HgN/A
3:20 PM39 °FScattered clouds.12 mph70%29.92 "HgN/A
2:50 PM41 °FScattered clouds.13 mph70%29.89 "HgN/A
2:20 PM41 °FScattered clouds.10 mph70%29.89 "HgN/A
1:50 PM41 °FScattered clouds.12 mph70%29.89 "HgN/A
1:20 PM41 °FScattered clouds.10 mph70%29.86 "HgN/A
12:50 PM41 °FScattered clouds.13 mph76%29.86 "HgN/A
12:20 PM41 °FScattered clouds.12 mph76%29.86 "HgN/A
11:50 AM41 °FScattered clouds.12 mph81%29.83 "HgN/A
11:20 AM39 °FPartly sunny.12 mph87%29.83 "HgN/A
10:50 AM39 °FPartly sunny.10 mph93%29.83 "HgN/A
10:20 AM39 °FPartly sunny.13 mph93%29.80 "HgN/A
9:50 AM39 °FPartly sunny.12 mph93%29.80 "HgN/A
9:20 AM39 °FRain. Partly sunny.12 mph93%29.77 "Hg6 mi
8:50 AM37 °FRain. Partly sunny.12 mph100%29.74 "Hg6 mi
8:20 AM37 °FRain. Partly sunny.13 mph93%29.71 "Hg6 mi
7:50 AM37 °FLight rain. Passing clouds.18 mph93%29.71 "Hg6 mi
7:20 AM37 °FLight rain. Passing clouds.18 mph87%29.68 "Hg5 mi
6:50 AM36 °FLight rain. Passing clouds.20 mph93%29.68 "Hg5 mi
6:20 AM37 °FLight rain. Partly cloudy.18 mph81%29.65 "Hg5 mi
5:50 AM37 °FSprinkles. Partly cloudy.17 mph81%29.65 "Hg5 mi
5:20 AM37 °FPartly cloudy.12 mph81%29.65 "HgN/A
4:50 AM37 °FPartly cloudy.13 mph81%29.68 "HgN/A
4:20 AM37 °FPartly cloudy.13 mph75%29.65 "HgN/A
3:50 AM37 °FPassing clouds.9 mph75%29.68 "HgN/A
3:20 AM37 °FPartly cloudy.14 mph70%29.68 "HgN/A
2:50 AM37 °FPartly cloudy.12 mph70%29.71 "HgN/A
2:20 AM36 °FPartly cloudy.12 mph70%29.71 "HgN/A
1:50 AM36 °FClear.13 mph70%29.74 "Hg10 mi
1:20 AM34 °FClear.14 mph75%29.74 "Hg10 mi
12:50 AM34 °FClear.13 mph75%29.77 "Hg10 mi
11:50 PM
Fri, Nov 27
34 °FClear.10 mph75%29.80 "Hg10 mi
11:20 PM34 °FClear.10 mph75%29.83 "Hg10 mi
10:50 PM34 °FClear.13 mph75%29.83 "Hg10 mi
10:20 PM34 °FClear.16 mph81%29.83 "Hg10 mi
9:50 PM34 °FPassing clouds.17 mph81%29.83 "HgN/A
9:20 PM34 °FClear.17 mph81%29.86 "Hg10 mi
Weather by CustomWeather, © 2015

See weather overviewHow to use our weather pages